Location: Podia
(1.5569°N, 32.3469°E)
Time: 13:03:57
(UTC+00:00)

Transit 2A Rocket - All Passes

Search period start: 26 September 2020 00:00
Search period end: 06 October 2020 00:00
Orbit: 585 x 918 km, 66.7° (Epoch: 25 September)

Date Brightness Start Highest point End Pass type
(mag) Time Alt. Az. Time Alt. Az. Time Alt. Az.
26 Sep - 02:05:10 10° NW 02:09:46 48° WSW 02:14:03 10° S visible
26 Sep - 12:52:41 10° SSE 12:57:11 25° ESE 13:01:54 10° NE daylight
26 Sep - 14:34:55 10° WSW 14:39:32 26° WNW 14:44:24 10° NNW daylight
27 Sep - 01:22:30 10° NNW 01:27:17 69° ENE 01:31:42 10° SSE visible
27 Sep - 12:12:42 10° SE 12:14:43 12° ESE 12:16:46 10° E daylight
27 Sep - 13:51:30 10° SW 13:56:56 51° WNW 14:02:44 10° N daylight
28 Sep - 00:40:34 10° N 00:44:44 29° ENE 00:48:37 10° SE night (unlit)
28 Sep - 02:25:10 10° W 02:26:54 12° WSW 02:28:35 10° SW visible
28 Sep - 13:08:49 10° SSW 13:14:24 80° ESE 13:20:24 10° NNE daylight
28 Sep - 23:59:54 10° NE 00:02:06 13° ENE 00:04:13 10° E night (unlit)
29 Sep - 01:40:28 10° NW 01:44:28 28° WSW 01:48:14 10° SSW night (unlit)
29 Sep - 12:26:44 10° S 12:31:55 39° ESE 12:37:26 10° NE daylight
29 Sep - 14:10:53 10° WSW 14:14:24 17° WNW 14:18:03 10° NNW daylight
30 Sep - 00:57:18 10° NNW 01:02:01 67° WSW 01:06:23 10° SSE night (unlit)
30 Sep - 11:45:29 10° SSE 11:49:28 20° ESE 11:53:37 10° ENE daylight
30 Sep - 13:26:44 10° SW 13:31:47 33° WNW 13:37:05 10° N daylight
01 Oct - 00:14:54 10° N 00:19:31 50° ENE 00:23:48 10° SE night (unlit)
01 Oct - 12:43:37 10° SSW 12:49:12 66° WNW 12:55:10 10° NNE daylight
01 Oct - 23:33:16 10° NNE 23:36:56 22° ENE 23:40:23 10° ESE night (unlit)
02 Oct - 01:16:20 10° WNW 01:19:10 16° WSW 01:21:54 10° SSW night (unlit)
02 Oct - 12:01:08 10° S 12:06:41 63° ESE 12:12:37 10° NNE daylight
03 Oct - 00:32:25 10° NW 00:36:43 37° WSW 00:40:46 10° S night (unlit)
03 Oct - 11:19:17 10° S 11:24:13 31° ESE 11:29:25 10° NE daylight
03 Oct - 13:02:23 10° WSW 13:06:38 21° WNW 13:11:04 10° NNW daylight
03 Oct - 23:49:32 10° NNW 23:54:16 90° ENE 23:58:39 10° SSE night (unlit)
04 Oct - 10:38:31 10° SE 10:41:45 15° ESE 10:45:06 10° ENE daylight
04 Oct - 12:18:41 10° SW 12:24:01 42° WNW 12:29:41 10° N daylight
04 Oct - 23:07:22 10° N 23:11:44 37° ENE 23:15:48 10° SE night (unlit)
05 Oct - 11:35:47 10° SSW 11:41:28 83° WNW 11:47:31 10° NNE daylight
05 Oct - 22:26:11 10° NNE 22:29:08 16° ENE 22:31:57 10° ESE night (unlit)
